Location: Chmeln�
(49.6483°N, 14.9871°E)
Time: 04:51:59
(UTC+00:00)

ATLAS 2AS CENTAUR R/B - Pass Details

Date: 18 September 2020
Orbit: 939 x 1273 km, 63.7° (Epoch: 27 October)

Event Time Altitude Azimuth Distance (km) Brightness Sun altitude
Rises 19:13:23 0° 183° (S) 4,184 5.6 -20.5°
Reaches altitude 10° 19:16:25 10° 175° (S) 3,242 4.9 -21.0°
Enters shadow 19:16:58 12° 173° (S) 3,085 4.8 -21.0°
Exits shadow 19:24:46 32° 94° (E) 2,021 3.6 -22.1°
Drops below altitude 10° 19:30:15 10° 53° (NE) 3,245 5.0 -22.9°
Sets 19:33:17 0° 45° (NE) 4,189 5.7 -23.3°
